CW5586 Lerum SE current weather conditions

sailwx.info

Wind from 074 at 3 knots gusting 8

Air temperature 20.0° C
Dewpoint 8.0° C

Last reported at 2019-Jul-17 10:06 UTC.
Time now 2019-Jul-17 11:13 UTC

Location: N 57°47' E 012°15'.
View on Google Maps.

See reports from other nearby stations

  
Tides and Currents Weather Stations Pressure Air Temp Water Temp Dewpoint Dewpoint Depression Visibility Wind Speed Wind Dir Waves Ship Positions
date/time (UTC)wind fromknots sea level pressurealtimeterstation pressurevisibilityair tempwater tempwave heightnotes
2019-Jul-17 10:06 074 3 gusting 8 20.0
2019-Jul-17 09:46 035 4 gusting 10 20.0
2019-Jul-17 09:31 044 5 gusting 10 19.4
2019-Jul-17 09:16 358 3 gusting 6 20.0
2019-Jul-17 09:01 036 5 gusting 10 19.4
2019-Jul-17 08:36 007 5 gusting 7 19.4
2019-Jul-17 08:31 035 4 gusting 7 19.4
2019-Jul-17 08:16 350 1 gusting 6 18.3
2019-Jul-17 08:01 308 18.3
2019-Jul-17 07:31 042 2 gusting 6 17.8
2019-Jul-17 07:16 288 2 gusting 5 17.8
2019-Jul-17 06:46 012 1 gusting 2 16.7
2019-Jul-17 06:41 352 1 gusting 4 16.7
2019-Jul-17 06:01 287 15.0
2019-Jul-17 05:41 355 15.6
2019-Jul-17 05:31 014 0 gusting 2 14.4
2019-Jul-17 05:11 138 12.8
2019-Jul-17 05:06 138 12.8
2019-Jul-17 04:46 138 12.2
2019-Jul-17 04:36 138 11.7
2019-Jul-17 04:31 138 12.2
2019-Jul-17 04:16 138 11.7
2019-Jul-17 03:46 138 10.0
2019-Jul-17 03:11 138 8.9
2019-Jul-17 03:01 138 9.4
2019-Jul-17 02:46 138 9.4
2019-Jul-17 02:41 138 9.4
2019-Jul-17 02:16 138 10.0
2019-Jul-17 02:11 138 10.0
2019-Jul-17 02:06 344 10.0
2019-Jul-17 02:01 344 10.0
2019-Jul-17 01:46 344 10.6
2019-Jul-17 01:01 345 0 gusting 2 11.1
2019-Jul-17 00:46 340 2 gusting 4 11.7
2019-Jul-17 00:36 344 1 gusting 2 11.7
2019-Jul-17 00:31 318 11.7
2019-Jul-17 00:06 292 12.2
2019-Jul-16 23:46 328 12.2
2019-Jul-16 23:41 328 12.8
2019-Jul-16 23:31 328 0 gusting 4 12.8
2019-Jul-16 22:31 347 12.8
2019-Jul-16 22:16 347 13.3
2019-Jul-16 22:11 347 13.9
2019-Jul-16 22:01 346 13.9
2019-Jul-16 21:36 341 1 gusting 2 15.0
2019-Jul-16 21:31 329 0 gusting 2 15.0
2019-Jul-16 21:16 324 1 gusting 2 15.6
2019-Jul-16 20:46 315 2 gusting 2 16.1
2019-Jul-16 20:36 316 1 gusting 5 16.1
2019-Jul-16 19:46 007 3 gusting 6 16.7
2019-Jul-16 19:41 013 4 gusting 7 17.2
2019-Jul-16 19:36 023 1 gusting 5 17.2
2019-Jul-16 18:46 011 3 gusting 6 17.8
2019-Jul-16 18:41 018 2 gusting 6 17.8
2019-Jul-16 18:01 002 4 gusting 8 18.3
2019-Jul-16 17:46 337 2 gusting 7 18.3
2019-Jul-16 17:41 001 5 gusting 8 18.3
2019-Jul-16 17:31 019 1 gusting 11 18.3
2019-Jul-16 17:06 344 4 gusting 13 18.9
2019-Jul-16 16:31 339 4 gusting 13 19.4
2019-Jul-16 16:16 002 7 gusting 10 18.9
2019-Jul-16 16:11 319 6 gusting 12 18.9
2019-Jul-16 15:46 021 6 gusting 12 18.9
2019-Jul-16 15:41 007 4 gusting 10 18.9
2019-Jul-16 15:11 016 6 gusting 12 19.4
2019-Jul-16 14:46 331 8 gusting 13 18.3
2019-Jul-16 14:41 318 6 gusting 11 18.9
2019-Jul-16 14:01 351 6 gusting 13 18.9
2019-Jul-16 13:11 332 2 gusting 10 18.3
2019-Jul-16 13:01 351 5 gusting 15 18.9
2019-Jul-16 12:46 336 6 gusting 13 18.3
2019-Jul-16 12:41 348 3 gusting 12 18.3
2019-Jul-16 11:11 331 7 gusting 13 18.3
2019-Jul-16 11:01 318 5 gusting 13 17.8
2019-Jul-16 10:41 336 6 gusting 10 17.8
2019-Jul-16 10:16 333 5 gusting 13 17.2
2019-Jul-16 10:06 333 2 gusting 10 17.2
2019-Jul-16 09:36 262 3 gusting 10 17.2
2019-Jul-16 09:16 302 6 gusting 14 16.7
2019-Jul-16 09:11 300 7 gusting 12 16.7
2019-Jul-16 08:41 359 7 gusting 12 16.7
2019-Jul-16 08:36 334 6 gusting 11 16.1
2019-Jul-16 08:01 342 7 gusting 17 15.6
2019-Jul-16 07:41 302 4 gusting 10 15.6
2019-Jul-16 07:06 337 4 gusting 10 14.4
2019-Jul-16 07:01 337 5 gusting 10 14.4
2019-Jul-16 06:46 326 4 gusting 10 14.4
2019-Jul-16 06:36 330 5 gusting 10 14.4
2019-Jul-16 06:06 280 4 gusting 8 13.9
2019-Jul-16 05:46 322 4 gusting 7 13.9
2019-Jul-16 05:06 331 1 gusting 2 12.8
2019-Jul-16 04:36 300 12.2
2019-Jul-16 04:16 167 11.7
2019-Jul-16 04:11 167 11.7
2019-Jul-16 03:41 313 11.7
2019-Jul-16 03:36 313 11.7
2019-Jul-16 03:16 313 11.7
2019-Jul-16 03:11 313 11.7
2019-Jul-16 03:06 313 11.7
2019-Jul-16 03:01 313 11.1
2019-Jul-16 02:36 313 11.7
2019-Jul-16 02:11 313 11.1
2019-Jul-16 02:01 313 11.7
2019-Jul-16 01:46 313 11.1
2019-Jul-16 01:16 300 11.7
2019-Jul-16 01:06 300 11.7
2019-Jul-16 01:01 300 11.7
2019-Jul-16 00:31 190 11.1
2019-Jul-16 00:11 288 11.7
2019-Jul-15 23:46 347 11.1
2019-Jul-15 23:36 347 11.1
2019-Jul-15 23:16 232 12.2
2019-Jul-15 23:11 232 12.2
2019-Jul-15 23:06 232 12.2
2019-Jul-15 23:01 232 12.2
2019-Jul-15 22:16 225 11.7
2019-Jul-15 22:11 225 11.7
2019-Jul-15 22:06 225 11.7
2019-Jul-15 22:01 225 11.7
2019-Jul-15 21:41 225 11.1
2019-Jul-15 21:36 225 11.1
2019-Jul-15 21:31 302 11.1
2019-Jul-15 21:06 017 11.1
2019-Jul-15 20:46 017 10.6
2019-Jul-15 20:41 017 11.1
2019-Jul-15 20:36 017 11.1
2019-Jul-15 20:11 017 12.2
2019-Jul-15 19:41 017 13.3
2019-Jul-15 19:31 017 14.4
2019-Jul-15 19:11 017 15.0
2019-Jul-15 18:46 080 0 gusting 2 15.0
2019-Jul-15 18:31 023 1 gusting 4 15.0
2019-Jul-15 18:11 058 2 gusting 2 14.4
2019-Jul-15 18:06 053 1 gusting 4 14.4
2019-Jul-15 17:46 049 2 gusting 4 15.0
2019-Jul-15 17:31 005 2 gusting 7 15.0
2019-Jul-15 17:16 059 1 gusting 6 14.4
2019-Jul-15 17:06 024 1 gusting 5 14.4
2019-Jul-15 16:46 032 2 gusting 6 13.9
2019-Jul-15 16:36 045 6 gusting 12 13.9
2019-Jul-15 16:31 022 2 gusting 10 13.9
2019-Jul-15 16:11 023 2 gusting 6 13.3
2019-Jul-15 16:01 021 2 gusting 8 13.3
2019-Jul-15 15:16 359 2 gusting 6 15.6
2019-Jul-15 15:01 288 0 gusting 2 15.6
2019-Jul-15 14:31 295 0 gusting 4 15.6
2019-Jul-15 14:16 203 15.6
2019-Jul-15 14:11 200 0 gusting 2 15.6
2019-Jul-15 14:01 183 1 gusting 2 15.6
2019-Jul-15 13:41 165 1 gusting 7 15.6
2019-Jul-15 13:36 234 0 gusting 6 15.6
2019-Jul-15 13:31 211 2 gusting 6 15.6
2019-Jul-15 13:06 176 2 gusting 5 15.6
2019-Jul-15 13:01 184 2 gusting 10 15.6
2019-Jul-15 12:46 200 3 gusting 5 15.0
2019-Jul-15 12:41 194 4 gusting 7 14.4
2019-Jul-15 12:31 187 4 gusting 13 15.0
2019-Jul-15 12:16 189 5 gusting 13 15.0
2019-Jul-15 12:11 198 3 gusting 7 15.0
2019-Jul-15 12:06 195 6 gusting 10 15.0
2019-Jul-15 11:36 206 3 gusting 11 14.4
2019-Jul-15 11:16 187 5 gusting 10 15.0
2019-Jul-15 11:01 202 4 gusting 13 14.4